Date,TemperatureHighF,TemperatureAvgF,TemperatureLowF,DewpointHighF,DewpointAvgF,DewpointLowF,HumidityHigh,HumidityAvg,HumidityLow,PressureMaxIn,PressureMinIn,WindSpeedMaxMPH,WindSpeedAvgMPH,GustSpeedMaxMPH,PrecipitationSumIn
2013-1-8,42.9,38.7,34.2,41.3,37.1,33.4,100,94,76,29.93,29.82,19,1,19,0.04
2013-1-9,45.9,41.0,34.2,35.5,32.2,27.6,78,71,65,29.85,29.61,19,4,19,0.04
2013-1-10,34.2,30.0,27.6,27.7,24.3,21.8,95,79,70,29.82,29.73,12,1,12,0.00
2013-1-11,33.6,24.7,14.6,23.1,15.4,7.8,83,68,56,30.14,29.82,16,2,16,0.00
2013-1-12,25.8,19.0,11.9,18.0,13.0,6.1,83,77,66,30.20,30.11,11,0,11,0.00
2013-1-13,23.1,17.7,10.8,16.1,11.8,6.7,84,77,70,30.32,30.20,0,0,0,0.00
2013-1-14,24.2,22.0,17.6,19.5,16.8,10.4,83,80,73,30.35,30.20,11,0,11,0.00
2013-1-15,30.8,26.5,21.0,24.6,21.3,16.8,86,81,73,30.47,30.32,0,0,0,0.00
2013-1-16,34.0,23.2,15.8,29.5,18.8,11.9,91,83,70,30.47,30.41,0,0,0,0.04
2013-1-17,26.0,21.9,16.4,24.1,20.5,13.5,99,94,85,30.44,30.26,8,0,8,0.00
2013-1-18,25.8,18.8,14.0,24.3,17.3,11.9,97,93,91,30.26,30.17,0,0,0,0.00
2013-1-19,33.5,25.5,20.5,29.7,23.6,18.8,100,93,80,30.35,30.26,4,0,5,0.04
2013-1-20,32.8,23.3,15.8,31.0,21.2,12.6,100,92,80,30.41,30.29,0,0,0,0.00
2013-1-21,24.9,22.5,19.7,24.4,22.2,17.4,100,99,91,30.29,30.20,0,0,0,0.00
2013-1-22,28.1,24.1,20.3,28.1,24.1,20.3,100,100,98,30.23,30.08,0,0,0,0.00
2013-1-23,36.5,29.7,24.0,36.5,28.5,24.0,100,95,78,30.08,29.88,15,0,15,0.00
2013-1-24,38.1,30.5,26.3,32.1,26.6,22.3,98,86,71,30.17,29.99,12,0,12,0.00
2013-1-25,41.1,37.8,32.8,41.1,37.7,32.2,100,100,98,30.08,29.85,10,0,10,0.39
2013-1-26,38.6,35.5,32.8,38.6,34.0,30.4,100,95,81,29.91,29.82,10,0,10,0.00
2013-1-27,33.1,31.2,29.2,30.4,27.3,25.4,93,86,79,29.93,29.88,8,0,8,0.00
2013-1-28,34.2,30.7,28.1,34.2,28.7,24.3,100,92,82,29.88,29.79,16,1,16,0.04
2013-1-29,35.8,32.0,28.8,32.9,28.7,25.1,100,88,68,30.11,29.79,14,0,14,0.00
2013-1-30,39.3,35.9,33.1,38.5,35.2,32.9,100,97,86,30.17,30.05,0,0,0,0.16
2013-1-31,43.1,38.2,35.1,42.4,37.0,34.3,100,96,80,30.20,30.11,0,0,0,0.04
2013-2-1,42.9,35.7,29.2,37.7,32.5,25.8,100,88,68,30.35,30.11,8,0,8,0.00
2013-2-2,42.0,31.5,26.0,37.4,29.8,24.3,100,94,76,30.41,30.17,12,0,13,0.00
2013-2-3,38.8,32.4,27.9,38.8,31.4,27.6,100,96,85,30.17,30.02,0,0,0,0.00
2013-2-4,48.4,36.5,32.6,38.8,32.7,27.9,100,87,62,30.05,29.93,8,0,8,0.00
2013-2-5,43.4,37.1,30.8,39.2,33.3,30.5,100,86,66,29.93,29.79,14,0,14,0.04
2013-2-6,44.0,37.9,33.1,33.6,30.5,28.1,88,75,61,29.99,29.88,16,0,16,0.00
2013-2-7,39.0,35.4,32.0,34.9,32.3,27.9,100,88,81,29.96,29.88,12,0,12,0.04
2013-2-8,39.0,34.8,30.1,36.7,32.3,26.6,100,91,70,30.05,29.96,7,0,7,0.04
2013-2-9,35.4,32.7,29.9,30.5,28.1,25.8,94,84,70,30.02,29.96,11,0,11,0.00
2013-2-10,34.7,31.8,26.0,30.6,25.9,21.6,94,79,71,30.20,30.11,0,0,0,0.00
2013-2-11,39.0,33.9,25.1,29.6,27.4,21.5,92,77,64,30.14,30.11,12,0,12,0.00
2013-2-12,43.4,37.9,32.9,34.2,30.5,27.3,82,75,62,30.20,30.08,16,2,16,0.00
2013-2-13,50.4,39.8,27.9,35.6,29.6,20.1,80,67,54,30.26,30.08,12,1,12,0.00
2013-2-14,44.2,34.0,27.6,32.0,27.3,23.3,93,77,59,30.44,30.26,15,0,15,0.00
2013-2-15,52.9,36.9,29.0,37.3,30.3,24.6,100,78,55,30.44,30.20,15,0,15,0.00
2013-2-16,46.8,37.2,28.8,39.9,32.1,26.0,100,82,65,30.20,29.85,17,0,17,0.00
2013-2-17,43.8,36.1,29.9,32.3,28.2,24.8,90,73,58,30.05,29.88,17,1,17,0.00
2013-2-18,44.5,35.1,27.0,30.2,26.5,23.0,91,71,57,30.02,29.73,11,0,11,0.00
2013-2-19,39.9,34.3,30.2,32.5,28.9,23.6,92,81,67,29.82,29.67,15,0,15,0.00
2013-2-20,38.8,33.0,27.9,30.9,26.6,20.3,89,78,60,29.93,29.82,11,0,11,0.00
2013-2-21,35.2,31.5,26.9,33.2,27.5,22.0,96,85,72,29.96,29.88,14,0,14,0.00
2013-2-22,38.5,34.7,32.6,37.9,31.7,25.1,100,89,63,29.93,29.58,19,2,20,0.28
2013-2-23,41.7,33.5,27.6,29.6,24.9,21.1,87,71,59,30.11,29.64,12,1,17,0.08
2013-2-24,38.1,33.2,27.6,27.0,25.6,22.5,91,74,61,30.23,29.99,13,1,13,0.00
2013-2-25,42.9,36.2,32.6,37.8,28.1,24.6,99,73,59,30.02,29.85,16,2,16,0.20
2013-2-26,38.5,33.0,25.8,26.8,24.4,20.5,83,71,60,30.23,30.02,17,1,17,0.00
2013-2-27,43.8,36.5,31.0,31.1,27.5,24.3,81,70,59,30.20,30.14,15,1,15,0.00
2013-2-28,44.7,38.1,34.2,38.5,33.9,29.0,100,85,66,30.29,30.17,15,0,15,0.04
2013-3-1,52.9,46.2,38.5,45.9,40.4,36.0,100,81,65,30.29,30.23,15,2,15,0.00
2013-3-2,53.4,46.5,38.6,39.4,37.5,34.3,89,72,58,30.23,29.85,17,1,17,0.00
2013-3-3,47.2,39.1,32.8,35.7,25.0,20.5,70,57,50,30.11,29.82,21,5,21,0.00
2013-3-4,48.2,35.3,24.9,29.0,23.0,17.0,82,62,47,30.20,30.02,15,1,15,0.00
2013-3-5,40.2,33.7,27.6,26.9,22.2,15.9,76,63,56,30.02,29.79,22,6,22,0.00
2013-3-6,41.3,36.0,33.3,37.3,30.5,25.1,97,81,68,29.79,29.58,22,4,22,0.08
2013-3-7,43.3,36.5,30.2,37.4,33.0,26.6,100,88,68,29.99,29.79,12,0,12,0.16
2013-3-8,40.8,33.3,29.4,35.4,30.8,25.8,100,91,74,30.05,29.96,12,0,12,0.00
2013-3-9,49.7,38.1,29.5,41.1,31.4,26.7,100,79,52,30.32,30.05,15,1,15,0.00
2013-3-10,46.8,37.4,31.1,34.9,31.5,27.4,96,80,57,30.32,30.17,15,0,15,0.00
2013-3-11,50.9,39.5,31.0,39.9,31.4,25.2,100,76,49,30.23,30.14,14,0,14,0.00
2013-3-12,51.8,42.3,34.0,46.5,36.3,26.4,100,80,65,30.17,29.99,15,1,15,0.08
2013-3-13,56.3,49.6,45.2,44.2,40.5,37.7,93,72,57,30.14,30.05,12,1,16,0.04
2013-3-14,62.3,51.8,43.1,44.5,39.8,36.2,78,64,52,30.08,29.93,16,2,16,0.00
2013-3-15,57.5,48.4,42.0,41.9,37.1,32.2,78,65,54,30.11,29.96,12,1,15,0.00
2013-3-16,53.4,43.6,36.0,38.1,35.4,28.2,86,73,55,29.99,29.64,26,3,26,0.04
2013-3-17,46.5,36.8,32.4,30.5,25.3,22.4,81,63,50,29.93,29.67,22,5,22,0.04
2013-3-18,41.3,33.6,29.4,30.6,24.7,20.4,84,70,57,30.08,29.91,20,1,20,0.00
2013-3-19,49.9,36.7,26.3,33.2,28.1,24.2,99,73,49,30.20,29.82,19,1,20,0.00
2013-3-20,52.2,42.4,37.0,49.9,36.5,26.2,100,81,57,29.82,29.49,22,3,22,0.59
2013-3-21,41.8,34.7,30.6,28.3,24.4,20.8,79,66,56,29.96,29.73,22,4,26,0.00
2013-3-22,41.3,31.8,27.0,29.5,24.3,21.4,83,74,59,30.17,29.93,17,0,17,0.00
2013-3-23,44.7,31.5,23.3,30.0,23.3,20.0,89,72,56,30.26,30.17,17,0,17,0.00
2013-3-24,47.2,33.0,20.5,29.3,22.5,16.7,88,67,47,30.26,30.11,17,0,17,0.00
2013-3-25,52.9,36.5,22.6,34.3,24.7,16.3,79,63,49,30.11,29.93,13,1,15,0.00
2013-3-26,57.2,40.7,25.4,38.7,29.6,21.0,87,66,50,29.96,29.88,12,0,17,0.00
2013-3-27,54.5,44.0,34.7,41.2,34.3,26.8,81,69,58,29.96,29.91,15,0,15,0.00
2013-3-28,60.5,46.3,34.2,44.0,38.7,32.1,100,77,53,30.02,29.93,12,0,12,0.00
2013-3-29,62.2,48.4,38.3,46.3,38.9,32.1,100,72,49,30.14,30.02,16,1,16,0.00
2013-3-30,64.7,48.9,34.9,46.1,37.5,31.3,93,67,46,30.23,30.08,12,0,12,0.00
2013-3-31,68.4,50.8,35.8,46.3,38.4,32.3,92,65,45,30.08,29.88,12,0,13,0.00
2013-4-1,70.2,51.9,34.0,48.9,39.1,30.4,92,64,45,29.93,29.88,12,0,12,0.00
2013-4-2,63.2,52.7,42.9,45.3,40.7,34.5,84,65,52,30.05,29.93,17,2,17,0.00
2013-4-3,63.0,52.2,44.5,44.8,40.1,35.3,77,64,49,30.08,29.96,17,1,17,0.00
2013-4-4,56.1,47.6,39.0,49.7,41.7,34.8,100,81,57,29.96,29.73,12,0,12,0.04
2013-4-5,56.8,49.9,47.0,44.5,40.9,37.6,79,71,57,29.85,29.76,20,4,20,0.00
2013-4-6,55.0,48.1,44.0,45.9,38.4,32.6,100,71,53,29.85,29.79,21,4,21,0.08
2013-4-7,52.3,42.3,36.5,44.0,36.0,31.9,96,79,60,29.79,29.55,17,2,21,0.20
2013-4-8,47.7,39.6,29.4,37.0,31.6,22.3,95,75,56,30.17,29.73,21,4,25,0.00
2013-4-9,53.8,41.2,27.0,37.1,30.8,22.5,92,68,51,30.26,30.14,12,0,12,0.00
2013-4-10,57.3,46.7,42.2,51.6,36.8,32.0,96,69,54,30.14,29.76,21,2,21,0.04
2013-4-11,53.6,44.4,37.0,36.7,32.9,29.5,80,64,51,30.05,29.96,17,2,17,0.00
2013-4-12,56.5,42.8,33.5,39.5,33.0,27.3,98,70,49,30.02,29.58,19,2,19,0.12
2013-4-13,49.5,39.6,33.6,39.0,29.1,23.2,100,67,52,29.76,29.52,24,4,29,0.04
2013-4-14,48.6,38.5,31.7,33.1,28.3,23.5,81,67,52,29.88,29.76,17,2,17,0.00
2013-4-15,47.4,38.3,29.7,30.3,23.9,17.5,77,56,50,30.05,29.85,27,7,27,0.00
2013-4-16,47.2,36.8,27.6,27.8,21.6,15.4,66,54,47,30.26,30.05,25,6,25,0.00
2013-4-17,53.1,38.8,21.5,32.7,24.6,15.3,80,58,46,30.32,30.20,15,1,15,0.00
2013-4-18,54.1,43.8,31.1,37.7,30.3,20.4,71,59,53,30.26,30.11,17,1,17,0.00
2013-4-19,51.7,45.9,40.8,51.7,43.5,34.4,100,92,71,30.11,29.88,12,0,14,0.39
2013-4-20,58.3,47.9,38.8,40.6,37.9,32.0,99,70,52,30.02,29.91,24,3,24,0.00
2013-4-21,46.7,40.1,32.4,37.0,33.4,29.5,97,78,63,30.23,29.99,17,1,17,0.08
2013-4-22,53.6,39.7,26.5,33.6,28.1,22.6,92,65,46,30.41,30.23,20,1,20,0.00
2013-4-23,56.8,42.8,31.7,38.2,30.5,26.1,82,63,45,30.29,30.14,16,1,16,0.00
2013-4-24,61.5,47.7,32.6,42.4,34.0,27.6,82,61,47,30.23,29.93,21,2,21,0.00
2013-4-25,67.9,53.4,37.2,45.8,38.0,29.7,77,57,45,29.99,29.91,17,1,17,0.00
2013-4-26,72.3,58.0,43.1,51.0,41.6,33.9,71,55,44,30.11,29.99,17,1,17,0.00
2013-4-27,61.3,55.8,50.6,42.0,38.8,35.2,61,53,47,30.05,29.93,24,2,24,0.00
2013-4-28,59.5,52.7,45.1,41.2,37.6,32.8,69,57,47,30.02,29.82,19,4,19,0.00
2013-4-29,55.8,47.4,40.8,35.6,31.7,23.9,78,55,45,29.88,29.67,26,5,26,0.00
2013-4-30,40.6,37.1,34.7,28.3,25.6,21.8,75,64,51,30.26,29.88,10,0,10,0.00
2013-5-1,57.5,44.5,32.1,37.9,31.5,26.8,86,62,45,30.50,30.26,16,1,16,0.00
2013-5-2,67.9,51.3,33.8,45.8,35.9,27.0,81,57,43,30.53,30.20,17,1,17,0.00
2013-5-3,67.9,57.4,46.3,46.4,40.2,33.7,66,53,45,30.20,30.14,20,3,20,0.00
2013-5-4,70.2,58.4,44.2,47.9,40.8,33.3,70,53,43,30.23,30.05,29,4,29,0.00
2013-5-5,75.2,60.1,43.7,51.2,41.3,30.7,61,50,43,30.05,29.82,22,4,22,0.00
2013-5-6,80.0,61.9,40.5,54.9,44.3,32.8,78,54,42,29.91,29.73,15,1,15,0.00
2013-5-7,81.4,64.8,46.0,56.2,46.8,37.9,76,54,42,29.88,29.76,17,1,17,0.00
2013-5-8,81.1,66.3,47.8,55.8,48.4,39.2,77,54,42,29.96,29.88,12,0,12,0.00
2013-5-9,81.4,67.8,53.5,56.2,50.4,44.3,75,55,42,30.05,29.96,11,0,11,0.00
2013-5-10,83.0,68.3,52.0,57.8,50.1,42.4,71,54,41,30.14,30.02,12,0,12,0.00
2013-5-11,68.8,59.9,56.3,49.9,46.7,44.5,67,62,51,30.08,30.05,11,0,11,0.00
2013-5-23,48.8,44.4,40.3,35.1,33.9,32.6,75,67,57,29.91,29.91,0,0,0,0.71
2013-5-24,52.7,44.7,35.1,42.3,37.8,31.6,95,77,60,29.96,29.91,12,1,14,0.00
2013-5-25,58.3,49.9,41.2,44.6,40.1,36.4,96,70,53,29.96,29.93,12,0,12,0.00
2013-5-26,68.2,55.1,38.5,48.1,42.7,34.7,96,65,48,29.96,29.82,12,0,12,0.00
2013-5-27,65.8,56.6,50.6,48.9,44.7,42.0,94,65,51,29.91,29.76,21,1,21,0.00
2013-5-28,59.5,53.6,48.6,50.6,48.0,45.1,100,82,63,29.79,29.73,11,0,11,0.00
2013-5-29,65.9,53.2,46.5,47.8,45.0,42.1,93,75,51,29.82,29.64,15,1,15,0.04
2013-5-30,59.9,51.3,45.4,45.8,41.4,37.7,90,69,55,30.05,29.82,12,0,12,0.00
2013-5-31,64.0,54.5,44.4,45.3,41.6,37.9,88,63,48,30.20,30.05,16,0,16,0.00
2013-6-1,68.4,57.2,41.5,48.0,42.5,36.1,84,60,45,30.20,29.93,12,0,12,0.00
2013-6-2,54.7,50.3,46.3,50.2,42.7,39.0,94,75,60,29.93,29.88,12,0,12,0.04
2013-6-3,68.4,57.1,47.2,52.3,47.1,44.9,100,71,50,30.02,29.91,12,0,12,0.04
2013-6-4,72.2,60.7,46.0,51.8,47.6,43.1,96,64,46,30.08,29.99,11,0,11,0.00
2013-6-5,77.3,65.7,49.0,55.8,49.9,43.3,82,58,46,30.02,29.91,13,0,13,0.04
2013-6-6,80.5,69.8,58.1,58.5,53.1,47.7,72,56,45,29.96,29.85,12,0,13,0.00
2013-6-7,77.7,68.0,59.5,56.5,50.8,43.3,75,55,43,29.88,29.79,15,2,16,0.04
2013-6-8,74.3,64.2,52.2,50.5,45.1,37.5,61,50,43,29.99,29.85,15,1,15,0.04
2013-6-9,71.6,63.4,53.3,48.6,45.3,39.6,64,52,44,29.88,29.79,12,2,12,0.04
2013-6-10,72.9,62.0,48.8,50.7,44.9,37.9,70,54,44,29.82,29.70,13,0,13,0.04
2013-6-11,69.8,59.9,50.4,50.2,43.8,37.4,77,56,45,29.96,29.73,12,1,12,0.04
2013-6-12,64.7,57.0,49.5,46.2,41.0,35.7,67,55,51,30.02,29.93,11,0,11,0.00
2013-6-13,64.3,55.4,47.6,45.8,41.9,37.3,77,61,51,29.99,29.96,15,1,15,0.00
2013-6-14,65.9,54.9,45.4,46.8,42.2,38.5,84,63,48,30.08,29.99,11,0,12,0.00
2013-6-15,74.7,61.7,44.2,52.4,45.7,38.7,84,57,43,30.02,29.91,15,0,15,0.00
2013-6-16,56.8,52.0,48.6,46.4,42.4,40.2,77,70,61,29.99,29.93,0,0,0,0.00
2013-6-21,61.3,57.9,51.0,47.0,45.7,43.7,81,64,56,30.05,30.02,12,0,12,2.01
2013-6-22,65.2,56.8,48.6,50.3,47.8,45.2,100,74,53,30.05,29.91,15,0,15,0.00
2013-6-23,73.1,61.9,47.0,55.6,49.7,44.2,100,67,46,29.91,29.61,10,0,10,0.00
2013-6-24,64.7,59.3,55.2,57.0,52.1,49.6,94,77,64,29.70,29.58,12,0,12,0.00
2013-6-25,65.9,58.6,51.1,55.8,51.2,48.1,100,78,55,29.85,29.70,12,0,12,0.16
2013-6-26,70.2,62.1,56.0,55.2,52.4,49.4,95,72,54,30.05,29.85,11,0,12,0.00
2013-6-27,75.9,67.0,55.8,58.4,55.4,50.9,96,68,52,30.17,30.05,13,0,16,0.00
2013-6-28,84.8,71.4,56.0,62.0,56.6,50.6,86,61,46,30.20,30.02,12,0,12,0.00
2013-6-29,74.3,66.6,59.9,60.5,57.5,55.7,91,73,59,30.11,29.96,20,1,20,0.00
2013-6-30,87.3,73.2,57.9,62.9,59.3,54.3,100,65,41,30.05,29.93,12,0,12,0.00
2013-7-1,93.4,77.7,60.2,67.9,61.3,54.3,89,59,42,30.02,29.88,17,1,17,0.00
2013-7-2,92.6,80.0,64.7,68.5,63.2,57.7,79,58,45,29.99,29.85,11,0,11,0.00
2013-7-3,86.1,76.4,66.7,62.8,58.6,52.1,76,55,41,29.96,29.85,15,1,15,0.00
2013-7-4,80.2,71.5,62.4,57.0,53.0,48.5,69,53,43,29.91,29.79,15,1,15,0.00
2013-7-5,76.8,68.4,60.0,55.2,50.5,44.2,68,53,43,29.85,29.76,12,1,15,0.00
2013-7-6,79.8,69.2,57.3,57.1,52.4,48.0,74,56,45,29.88,29.79,12,0,12,0.00
2013-7-7,83.4,70.2,52.3,58.0,52.8,47.8,87,56,42,29.88,29.76,12,0,12,0.00
2013-7-8,78.9,65.9,55.4,58.3,53.5,47.8,81,65,45,30.02,29.79,12,0,12,0.00
2013-7-9,84.2,70.4,53.9,59.4,54.7,49.7,93,60,41,30.11,29.96,8,0,8,0.00
2013-7-10,88.1,74.4,57.7,63.0,55.7,47.9,73,54,41,29.96,29.73,14,0,14,0.00
2013-7-11,78.4,69.9,60.6,55.0,50.3,40.4,67,50,42,29.85,29.73,15,2,15,0.00
2013-7-12,74.8,65.1,56.4,51.7,46.0,40.8,64,50,43,29.88,29.79,12,0,15,0.00
2013-7-13,73.7,65.1,54.3,51.4,47.4,42.8,67,53,44,30.05,29.88,12,0,12,0.00
2013-7-14,80.7,68.1,51.8,55.8,50.1,43.5,75,54,42,30.05,29.85,13,0,13,0.00
2013-7-15,79.8,69.1,57.2,56.0,50.1,43.5,70,52,43,29.91,29.85,12,0,12,0.00
2013-7-16,83.3,71.1,52.7,59.8,52.5,43.1,71,53,44,29.93,29.79,17,3,19,0.00
2013-7-17,86.3,75.4,63.5,63.1,58.4,53.0,89,57,44,29.99,29.82,16,1,16,0.04
2013-7-18,86.7,74.5,60.0,61.7,55.9,48.4,77,54,41,30.08,29.96,12,0,12,0.00
2013-7-19,89.2,75.7,59.7,62.3,55.4,47.8,66,51,40,30.02,29.88,12,0,12,0.00
2013-7-20,90.3,76.5,62.4,63.5,56.3,48.3,71,51,40,29.91,29.73,16,0,16,0.00
2013-7-21,88.5,75.7,59.9,61.8,54.1,45.8,63,48,41,29.85,29.73,11,1,15,0.00
2013-7-22,88.3,75.9,63.1,61.6,55.1,48.4,63,49,41,29.88,29.73,12,1,12,0.00
2013-7-23,91.2,77.2,62.6,63.8,56.0,47.7,63,49,40,29.99,29.88,12,0,12,0.04
2013-7-24,91.9,77.2,60.2,64.2,56.4,48.8,70,50,40,29.96,29.88,12,0,12,0.00
2013-7-25,91.9,77.7,61.3,64.2,57.0,49.9,69,50,40,30.02,29.91,10,0,10,0.00
2013-7-26,91.4,77.3,62.2,63.7,55.7,47.5,64,48,40,30.02,29.88,14,1,15,0.00
2013-7-27,84.2,72.8,62.0,58.1,51.1,44.4,55,47,41,29.96,29.79,11,0,11,0.00
2013-7-28,81.3,69.9,55.7,57.1,50.4,44.1,65,51,42,29.88,29.76,12,0,12,0.00
2013-7-29,81.3,68.9,55.2,56.0,50.7,44.4,71,53,42,29.93,29.82,10,0,10,0.00
2013-7-30,84.5,71.7,58.4,58.4,52.5,46.2,67,52,41,30.08,29.91,15,0,15,0.00
2013-7-31,84.3,72.2,56.6,60.1,52.7,45.8,70,51,41,30.17,29.91,16,0,16,0.00
2013-8-1,72.3,64.8,58.6,55.2,51.0,46.5,75,61,50,30.02,29.88,12,0,12,0.00
2013-8-2,60.8,57.6,55.7,59.0,56.8,51.4,100,98,73,30.17,29.93,9,0,9,1.02
2013-8-3,71.7,63.2,55.5,63.2,55.6,52.7,100,79,53,30.17,30.02,6,0,6,0.04
2013-8-4,79.8,68.7,55.5,59.6,55.4,50.2,100,66,45,30.08,29.93,17,0,17,0.04
2013-8-5,83.8,70.8,56.8,60.0,55.0,49.8,82,59,44,30.14,29.88,12,0,12,0.04
2013-8-6,85.1,72.5,56.4,62.0,56.2,50.9,86,58,44,30.23,29.85,8,0,8,0.00
2013-8-7,86.9,73.5,58.1,61.3,55.6,50.4,79,55,41,30.11,29.85,16,0,16,0.00
2013-8-8,87.0,72.9,59.5,60.5,54.7,49.1,72,54,41,30.17,29.85,10,0,10,0.00
2013-8-9,88.5,76.2,62.2,64.9,57.8,51.2,71,54,43,30.08,29.76,16,0,16,0.04
2013-8-10,87.8,74.9,63.8,62.6,57.0,51.4,72,55,41,30.02,29.82,17,1,17,0.00
2013-8-11,86.3,76.1,62.9,63.0,56.8,51.0,66,52,44,29.99,29.85,8,0,11,0.00
2013-8-12,86.5,74.4,60.9,61.9,57.0,53.0,80,56,41,30.08,29.91,11,0,11,0.00
2013-8-13,84.7,73.0,64.4,59.8,55.9,51.7,71,56,41,30.23,29.99,11,0,11,0.00
2013-8-14,88.3,73.6,58.4,63.7,56.6,51.0,80,57,41,30.26,29.88,14,0,14,0.00
2013-8-15,67.8,65.4,63.5,55.4,54.0,52.2,70,67,62,30.35,29.91,0,0,6,0.00
2013-8-19,82.4,75.7,65.8,57.0,52.9,47.7,54,45,42,30.35,30.05,12,1,12,0.00
2013-8-20,80.4,69.1,55.9,55.8,50.0,43.7,72,51,42,33.27,30.20,14,1,14,0.00
2013-8-21,65.8,61.6,58.4,47.2,45.9,43.0,65,56,48,30.88,30.53,0,0,0,0.00
2013-8-22,87.4,72.6,53.4,60.8,52.9,43.9,72,51,41,32.74,30.05,14,0,14,0.00
2013-8-23,79.3,74.3,65.4,57.9,54.5,48.8,63,50,45,30.23,29.91,11,1,11,0.00
2013-8-24,83.4,70.8,59.9,59.3,54.2,50.0,75,57,44,32.74,29.96,11,0,11,0.00
2013-8-25,82.0,70.0,59.0,59.3,54.9,48.4,89,60,44,31.65,30.17,20,0,20,0.04
2013-8-26,76.1,67.1,58.8,58.0,53.3,50.0,90,63,48,33.36,30.88,12,0,12,0.00
2013-8-27,81.1,68.6,55.4,57.3,52.7,48.6,81,59,42,33.36,31.00,10,0,12,0.00
2013-8-28,83.8,69.7,57.3,59.3,53.2,48.7,76,57,41,33.36,30.88,12,0,12,0.00
2013-8-29,78.6,66.5,56.8,59.8,53.4,48.4,79,64,48,33.36,31.47,8,0,8,0.08
2013-8-30,78.2,67.6,59.3,59.3,53.7,46.2,93,63,43,33.36,33.04,12,1,12,0.12
2013-8-31,81.1,66.7,50.9,56.2,51.0,44.3,80,59,42,33.36,33.30,12,0,12,0.00
2013-9-1,89.0,71.0,53.2,63.2,53.4,45.8,78,56,41,33.36,29.79,16,0,16,0.00
2013-9-2,69.9,65.3,61.1,61.2,55.8,49.0,97,72,52,29.93,29.79,12,0,12,0.00
2013-9-3,79.7,68.1,60.0,62.4,59.6,56.3,100,77,51,29.99,29.91,0,0,0,0.00
2013-9-4,86.7,71.0,59.7,63.7,60.3,56.6,96,71,46,29.99,29.93,11,0,11,0.00
2013-9-5,75.2,68.3,61.3,67.4,60.9,54.5,100,78,61,30.02,29.85,16,0,16,0.51
2013-9-6,64.9,60.9,56.8,61.7,55.8,50.7,100,84,62,30.08,29.88,12,0,12,0.04
2013-9-7,69.2,61.7,54.5,58.0,52.7,50.4,98,74,54,30.11,30.02,11,0,11,0.00
2013-9-8,68.1,60.2,53.7,58.5,53.0,48.7,100,79,53,30.05,29.96,12,1,12,0.00
2013-9-9,78.4,67.5,57.9,57.1,53.6,50.2,83,62,48,30.02,29.93,12,0,12,0.00
2013-9-10,83.1,68.7,55.4,59.5,54.5,50.0,86,63,42,30.05,29.93,12,0,16,0.00
2013-9-11,88.1,71.9,58.1,62.8,55.5,50.5,79,58,41,30.08,29.96,17,1,17,0.00
2013-9-12,88.3,73.5,62.0,62.2,55.0,49.5,71,53,41,30.02,29.85,12,0,12,0.00
2013-9-13,87.0,71.0,57.7,62.3,55.9,51.2,82,61,41,29.88,29.73,11,0,11,0.00
2013-9-14,87.4,72.2,57.7,62.3,55.1,47.7,83,57,41,29.91,29.79,12,0,12,0.00
2013-9-15,88.3,73.2,57.5,62.2,53.7,45.9,75,51,41,29.85,29.64,21,1,21,0.00
2013-9-16,69.4,62.5,57.7,59.8,52.0,45.2,90,69,51,29.91,29.76,12,0,12,0.00
2013-9-17,69.4,59.8,52.8,51.9,49.1,46.5,96,69,50,29.85,29.67,15,1,15,0.08
2013-9-18,62.9,54.7,49.2,52.5,46.8,43.4,100,76,52,30.05,29.76,14,1,14,0.00
2013-9-19,67.4,57.2,48.0,49.2,45.4,41.0,87,66,48,30.14,29.93,11,0,11,0.00
2013-9-20,73.4,59.2,46.4,53.1,45.8,40.4,83,63,46,29.93,29.58,16,1,16,0.00
2013-9-21,64.4,58.3,50.9,47.7,44.8,41.4,78,61,53,29.73,29.58,12,0,12,0.00
2013-9-22,60.4,53.9,47.3,49.2,44.4,41.4,91,71,53,29.73,29.67,14,2,14,0.00
2013-9-23,59.0,54.1,49.2,47.9,42.8,40.5,86,66,53,29.91,29.73,12,1,12,0.04
2013-9-24,58.1,52.7,48.5,50.9,43.1,40.8,95,71,54,29.91,29.76,12,0,12,0.04
2013-9-25,54.1,48.4,44.9,48.3,42.5,39.9,96,80,63,29.85,29.76,17,0,17,0.08
2013-9-26,60.0,50.3,42.9,42.4,39.0,35.1,85,67,47,29.99,29.85,16,0,16,0.00
2013-9-27,54.8,48.2,43.8,45.0,38.5,36.4,95,70,55,29.99,29.91,12,1,12,0.04
2013-9-28,55.4,51.4,46.4,53.4,49.4,45.3,100,93,74,29.91,29.49,19,2,19,0.31
2013-9-29,54.1,49.7,46.7,52.2,41.9,38.5,97,75,65,29.67,29.49,17,3,17,0.31
2013-9-30,57.3,50.7,44.6,49.8,39.9,35.0,100,67,54,29.88,29.43,20,4,20,0.16
2013-10-1,51.9,46.5,41.7,42.2,38.1,34.7,79,72,65,30.08,29.88,12,1,12,0.00
2013-10-2,53.0,46.1,41.1,38.5,36.4,34.2,80,69,57,30.11,29.99,12,0,12,0.00
2013-10-3,57.2,45.9,37.0,39.7,34.8,30.5,84,66,47,30.35,29.99,16,1,16,0.00
2013-10-4,56.4,43.5,30.5,39.5,33.7,27.7,93,70,48,30.47,30.35,10,0,10,0.00
2013-10-5,60.6,48.2,38.6,42.7,37.2,31.2,82,67,49,30.38,30.23,12,0,12,0.00
2013-10-6,65.8,49.5,35.9,47.0,40.1,32.4,94,72,50,30.23,29.93,11,0,11,0.00
2013-10-7,62.2,50.6,43.3,44.5,39.8,35.1,85,67,52,29.93,29.82,15,1,15,0.00
2013-10-8,47.6,42.9,36.6,40.6,37.6,34.3,99,82,66,29.99,29.85,12,0,12,0.04
2013-10-9,54.6,43.9,36.3,44.6,39.3,36.3,100,85,58,30.02,29.88,12,0,12,0.04
2013-10-10,51.9,44.6,35.0,41.2,38.4,32.4,95,80,60,29.96,29.85,10,0,10,0.00
2013-10-11,52.5,43.0,34.5,42.1,37.6,32.1,100,83,56,30.08,29.96,0,0,0,0.00
2013-10-12,54.5,45.2,35.4,38.4,34.5,28.6,79,67,54,30.08,29.99,13,0,13,0.00
2013-10-13,54.1,40.9,30.2,38.8,32.2,27.0,95,73,53,30.23,30.08,9,0,9,0.00
2013-10-14,56.3,41.4,30.2,38.8,32.1,26.4,97,72,48,30.35,30.23,12,0,12,0.00
2013-10-15,55.2,41.9,29.4,40.1,33.7,25.4,97,74,53,30.35,30.14,4,0,4,0.00
2013-10-16,56.8,46.2,36.5,40.7,36.3,31.2,83,69,53,30.14,30.08,0,0,0,0.00
2013-10-17,56.4,43.5,33.0,46.4,37.1,30.2,100,80,55,30.23,30.14,5,0,5,0.00
2013-10-18,57.2,45.2,32.9,46.4,38.9,30.6,100,81,54,30.26,30.14,10,0,10,0.00
2013-10-19,58.4,46.9,38.3,43.1,39.5,36.4,99,77,54,30.14,30.02,11,0,11,0.00
2013-10-20,59.3,47.8,36.8,44.4,40.4,35.3,100,77,55,30.11,30.05,11,0,11,0.00
2013-10-21,63.8,48.9,38.6,49.1,42.4,38.4,100,80,54,30.20,30.11,7,0,7,0.00
2013-10-22,60.9,46.6,38.4,54.5,41.9,35.3,100,85,56,30.20,30.08,0,0,0,0.00
2013-10-23,56.4,45.3,37.9,52.6,41.5,35.2,100,88,64,30.14,30.08,10,0,10,0.00
2013-10-24,59.9,47.0,41.3,51.8,42.6,36.6,100,86,58,30.11,30.05,0,0,0,0.00
2013-10-25,53.9,43.1,37.4,52.5,40.5,35.3,100,91,68,30.23,30.11,8,0,8,0.00
2013-10-26,52.5,42.6,36.8,49.6,40.1,33.5,100,91,68,30.26,30.02,0,0,0,0.00
2013-10-27,47.6,42.2,34.3,46.2,37.9,27.9,100,86,57,30.02,29.76,28,2,28,0.04
2013-10-28,48.2,37.3,32.3,33.4,25.7,20.8,100,64,49,29.99,29.88,25,3,25,0.04
2013-10-29,51.0,35.9,24.9,34.0,23.8,16.5,78,62,49,29.96,29.91,12,0,12,0.00
2013-10-30,47.6,37.1,28.4,32.3,27.9,24.0,86,70,55,30.02,29.96,11,0,11,0.00
2013-10-31,51.0,44.1,38.8,39.6,35.1,30.0,91,71,59,30.08,29.99,12,0,12,0.00
2013-11-1,53.7,42.7,34.7,41.9,37.5,32.2,100,83,60,30.20,29.96,10,0,10,0.00
2013-11-2,50.1,42.3,36.5,47.3,37.2,30.7,100,83,59,29.96,29.58,26,4,26,0.20
2013-11-3,41.0,36.2,32.9,33.9,29.6,25.5,93,77,61,29.93,29.73,12,1,12,0.04
2013-11-4,38.1,34.0,31.6,31.8,28.0,26.0,95,79,66,30.11,29.93,8,0,8,0.00
2013-11-5,34.7,32.7,30.0,34.7,30.0,24.3,100,90,75,30.11,30.05,5,0,5,0.04
2013-11-6,40.1,36.1,34.1,38.0,34.7,32.3,100,95,79,30.29,30.11,8,0,12,0.08
2013-11-7,44.0,37.9,34.3,44.0,37.1,33.5,100,97,75,30.20,29.73,17,0,17,0.47
2013-11-8,48.7,41.4,32.1,37.5,33.7,27.3,90,74,57,30.11,29.88,16,1,16,0.04
2013-11-9,44.7,38.6,31.8,40.6,35.2,30.4,100,88,73,30.17,30.08,10,0,10,0.00
2013-11-10,42.9,39.7,38.1,41.1,38.5,36.2,100,95,89,30.20,30.08,12,0,17,0.00
2013-11-11,48.0,41.2,37.9,38.5,35.6,33.3,89,81,67,30.32,30.20,21,2,21,0.00
2013-11-12,46.2,41.6,34.7,41.9,37.8,31.1,99,86,79,30.29,30.20,12,0,12,0.00
2013-11-13,49.4,43.2,41.1,45.8,39.0,34.2,100,86,65,30.29,30.20,12,0,12,0.00
2013-11-14,46.4,41.6,37.0,41.4,37.2,32.3,95,85,71,30.20,29.88,11,0,11,0.00
2013-11-15,39.3,36.1,33.0,34.8,32.2,29.5,100,86,70,29.88,29.31,17,2,17,0.04
2013-11-16,40.6,35.5,33.0,36.3,32.8,27.9,100,90,75,29.61,29.20,14,0,14,0.39
2013-11-17,44.4,37.8,30.7,34.8,30.7,25.8,84,75,62,29.88,29.61,17,1,17,0.04
2013-11-18,46.9,44.4,40.8,38.8,33.5,32.2,88,66,59,29.88,29.67,16,1,17,0.04
2013-11-19,56.3,47.0,37.2,42.0,37.1,25.9,98,70,55,29.76,29.55,25,3,25,0.08
2013-11-20,38.4,29.8,21.0,26.7,15.5,8.5,65,55,50,30.35,29.76,14,1,14,0.00
2013-11-21,35.9,22.6,14.9,21.3,12.0,7.5,74,64,50,30.58,30.35,13,0,13,0.00
2013-11-22,35.7,23.8,14.0,22.1,15.0,7.8,81,69,57,30.64,30.53,17,0,17,0.00
2013-11-23,37.2,26.1,20.8,23.4,17.1,13.5,76,69,57,30.53,30.26,15,0,15,0.00
2013-11-24,42.5,27.1,18.5,28.4,19.8,14.1,85,74,57,30.29,30.20,0,0,0,0.00
2013-11-25,39.7,30.3,22.2,29.2,23.8,18.6,92,77,64,30.35,30.29,12,0,12,0.00
2013-11-26,40.7,29.3,22.9,35.4,24.2,18.8,97,82,66,30.29,30.11,0,0,0,0.00
2013-11-27,39.5,30.5,24.5,34.0,27.1,21.3,100,87,67,30.14,30.05,13,0,13,0.00
2013-11-28,40.9,29.3,25.6,35.6,26.6,21.6,100,90,71,30.14,30.08,5,0,8,0.00
2013-11-29,33.2,30.6,27.7,33.2,30.5,26.6,100,100,94,30.20,30.14,0,0,0,0.00
2013-11-30,37.3,34.4,31.8,37.3,34.4,31.8,100,100,100,30.20,30.08,6,0,6,0.04
2013-12-1,47.5,40.3,34.7,45.5,39.5,34.7,100,97,65,30.08,29.58,20,1,20,0.63
2013-12-2,46.8,34.4,24.9,38.3,24.5,14.1,84,67,56,29.91,29.55,30,5,30,0.00
2013-12-3,28.4,22.3,13.8,14.3,8.9,2.3,64,56,51,30.17,29.91,30,8,30,0.00
2013-12-4,26.3,16.1,8.5,13.1,4.7,-2.5,72,60,51,30.20,30.14,15,0,15,0.00
2013-12-5,21.3,15.9,11.3,10.3,7.5,5.4,78,69,62,30.17,30.11,15,1,15,0.00
2013-12-6,18.5,10.4,4.7,7.3,0.7,-8.1,77,65,53,30.17,30.11,21,7,25,0.00
2013-12-7,13.8,5.6,-1.0,0.3,-7.1,-13.2,55,55,54,30.23,30.11,25,7,25,0.00
2013-12-8,15.2,8.5,1.2,4.9,-2.9,-11.2,65,59,55,30.38,30.23,12,0,12,0.00
2013-12-9,22.4,17.9,11.5,13.7,8.0,1.4,71,65,62,30.38,30.20,12,0,12,0.00
2013-12-10,30.4,23.0,19.2,19.3,14.9,12.2,74,71,62,30.35,30.20,11,0,11,0.00
2013-12-11,36.3,28.0,22.7,25.3,19.4,14.6,79,70,61,30.35,30.23,6,0,9,0.00
2013-12-12,36.6,28.7,22.7,30.2,23.7,18.3,91,81,69,30.23,30.02,6,0,7,0.00
2013-12-13,34.0,32.4,31.1,34.0,31.7,29.5,100,97,91,30.32,30.05,8,0,8,0.00
2013-12-14,40.7,36.0,32.5,40.7,35.2,32.4,100,97,87,30.32,30.20,10,0,10,0.04
2013-12-15,47.1,39.7,32.9,36.4,34.1,31.8,100,81,65,30.23,30.14,22,3,22,0.00
2013-12-16,43.9,36.0,29.7,36.2,31.1,25.3,97,83,69,30.32,30.23,14,0,14,0.04
2013-12-17,50.9,35.8,27.9,38.6,30.5,22.2,100,83,55,30.26,29.91,12,0,12,0.00
2013-12-18,37.5,32.2,26.6,32.2,27.7,21.8,91,83,79,29.91,29.79,10,0,10,0.00
2013-12-19,33.1,26.9,20.2,27.8,17.5,12.5,88,68,58,30.11,29.88,15,1,15,0.00
2013-12-20,26.3,24.5,21.8,23.6,18.0,11.0,94,77,62,30.02,29.58,11,0,11,0.00
2013-12-21,30.0,27.5,24.9,28.8,24.2,21.5,97,87,82,30.02,29.70,7,0,7,0.00
2013-12-22,34.8,31.7,28.6,34.8,31.3,27.6,100,98,91,30.20,29.99,0,0,0,0.00
2013-12-23,43.9,37.1,32.5,42.4,35.1,25.8,100,93,74,30.23,29.91,25,3,25,0.47
2013-12-24,40.4,31.4,26.1,30.0,26.0,22.2,91,81,63,30.44,30.23,12,0,12,0.00
2013-12-25,40.0,29.5,25.4,36.8,27.5,25.2,100,92,72,30.44,30.32,11,0,11,0.00
2013-12-26,39.5,30.6,25.2,34.9,28.1,23.5,100,91,74,30.32,30.20,0,0,0,0.00
2013-12-27,35.9,30.5,23.8,34.8,29.0,23.8,100,94,75,30.23,29.96,15,0,15,0.00
2013-12-28,31.5,29.2,27.9,29.6,26.6,24.7,98,90,83,30.38,30.11,11,0,11,0.00
2013-12-29,35.2,29.5,23.6,30.7,26.7,21.6,97,89,79,30.35,30.14,10,0,12,0.00
2013-12-30,35.2,30.9,26.1,34.8,30.2,25.1,100,97,88,30.23,30.02,11,0,11,0.00
2013-12-31,34.7,32.9,29.1,34.7,32.9,29.1,100,100,100,30.26,30.02,10,0,10,0.08
2014-1-1,38.0,32.5,30.4,35.2,31.7,29.3,100,97,80,30.35,30.26,12,0,12,0.00
2014-1-2,43.6,36.7,31.3,37.5,32.9,30.3,100,87,67,30.26,29.70,17,0,17,0.04